Temp
37 37 37 37 38 38 38 38 39 39 40 40 40 40 41 41 41 42 43 45 46 46 45 45 45 44 44 44 45 45 45 46 46 46 45 44 43 42 41 42 42 42
35 35 36 36 37 37 37 38 38 38 38 39 39 39 40 40 40 40 41 42 43 43 44 44 45 45 45 45 46 45 45 46 45 46 46 46 46 46 45 45 45 46
34 33 34 33 34 34 35 37 37 37 37 37 38 38 38 39 39 40 41 41 41 41 42 43 44 43 43 44 44 44 44 44 44 46 45 45 45 45 45 45 45 45
33 33 32 32 33 32 33 34 34 35 35 35 35 36 37 37 37 38 39 39 40 40 41 41 42 42 43 43 42 42 43 43 44 44 44 44 44 44 44 45 44 44
32 32 32 32 32 32 32 31 31 32 32 32 33 34 35 35 35 36 36 36 37 38 39 39 40 41 41 41 42 41 41 41 42 43 42 41 43 42 42 42 42 41
32 32 31 30 30 30 30 30 29 29 30 30 30 31 32 32 33 33 33 34 34 35 36 37 38 39 40 40 40 40 40 40 41 41 40 40 41 42 41 41 40 39
32 30 30 30 29 29 29 29 28 29 29 29 29 29 30 30 30 31 31 31 31 32 33 34 34 35 36 37 38 39 39 39 39 40 39 39 40 40 41 40 39 38
32 31 30 29 28 28 28 28 28 28 28 28 27 28 29 28 28 29 29 29 30 31 31 32 32 33 33 34 34 35 36 37 38 38 37 38 38 38 38 39 39 38
31 32 31 27 27 28 27 27 27 28 28 27 27 27 28 27 27 27 27 28 28 29 30 30 30 31 31 31 31 31 31 33 34 35 35 35 35 36 36 37 37 35
30 31 34 27 26 27 26 27 27 27 28 26 26 27 26 27 28 27 27 27 26 27 28 28 28 29 29 29 29 30 30 29 30 31 31 32 33 34 34 35 34 33
29 28 28 26 25 26 26 26 26 27 27 26 25 25 25 26 26 27 26 26 26 26 27 27 27 27 27 27 28 29 29 29 29 29 30 30 31 31 32 31 31 31
28 28 27 26 24 25 25 25 25 26 26 26 25 24 24 25 25 25 25 25 26 26 26 26 27 27 27 27 27 28 28 28 27 28 29 29 30 31 31 31 30 30
28 27 26 26 24 24 24 24 24 25 25 24 24 23 22 23 23 23 24 24 24 25 24 24 24 25 25 26 26 26 25 25 26 27 28 28 29 30 30 30 30 30
28 27 26 26 24 23 23 23 23 24 23 24 23 22 21 21 21 22 22 23 23 23 23 23 23 23 24 24 22 23 23 25 26 26 26 27 27 28 28 28 29 29
27 26 28 25 23 22 21 21 22 22 22 22 21 21 21 20 20 20 20 20 21 21 20 20 19 20 20 20 20 22 24 24 25 25 25 24 24 24 24 24 25 25
26 26 24 23 22 21 21 21 21 20 20 19 19 19 19 19 19 18 17 16 17 16 16 16 17 18 19 20 22 22 22 23 23 22 22 22 22 21 22 23 23 23
25 24 25 21 21 20 20 19 19 18 18 17 17 17 17 16 16 14 14 15 15 14 13 13 15 15 18 21 22 23 23 22 21 20 21 21 20 19 19 20 20 21
24 24 22 20 20 19 18 18 17 17 16 16 14 14 14 15 13 13 13 13 12 11 11 12 12 15 18 20 22 23 23 22 20 19 19 20 19 18 18 18 18 19
23 22 21 19 18 17 17 16 14 14 13 12 11 12 13 12 11 12 11 12 10 9 9 11 11 14 18 20 21 22 23 21 18 18 18 18 17 16 16 16 17 17
22 21 19 17 16 16 15 13 12 11 11 11 11 11 11 11 11 11 11 9 8 8 8 10 9 13 18 20 21 21 22 21 17 17 18 17 16 15 15 15 17 16
21 19 16 15 14 13 12 11 11 10 10 9 10 10 10 10 11 10 10 9 8 8 7 8 9 15 17 18 19 20 21 19 17 17 17 17 16 15 15 16 16 15
19 17 15 12 12 11 10 9 9 9 8 9 9 10 10 11 11 11 10 9 8 7 6 7 9 14 16 17 18 19 19 17 16 16 16 16 15 16 16 17 16 15
17 14 12 11 10 9 8 8 8 8 8 10 8 9 9 9 9 9 10 9 8 7 6 7 7 11 14 16 17 18 17 15 15 16 15 14 14 15 16 16 15 15
15 12 10 9 8 7 7 8 8 8 8 9 7 7 6 8 9 9 10 10 8 6 6 6 6 8 12 14 16 17 16 13 14 14 13 14 14 15 16 15 16 16
13 11 9 8 7 7 7 6 6 7 8 8 8 7 7 9 10 9 9 10 9 7 8 6 5 7 10 13 14 15 15 13 13 13 12 12 13 14 15 14 14 14
11 9 8 7 6 6 6 5 6 5 6 6 6 6 8 9 9 8 7 8 10 9 7 6 5 5 7 12 13 14 15 13 12 11 10 11 12 11 11 11 11 10
MSLP
1022.25 1021.93 1021.65 1021.33 1021.01 1020.69 1020.49 1020.17 1019.93 1019.69 1019.37 1019.13 1018.89 1018.69 1018.53 1018.33 1018.21 1018.05 1017.77 1017.49 1017.33 1017.25 1017.25 1017.25 1017.29 1017.29 1017.33 1017.37 1017.41 1017.41 1017.33 1017.29 1017.33 1017.41 1017.57 1017.77 1017.89 1018.09 1018.29 1018.37 1018.53 1018.61
1022.65 1022.49 1022.21 1021.97 1021.61 1021.33 1021.01 1020.61 1020.37 1020.13 1019.89 1019.61 1019.41 1019.25 1019.01 1018.93 1018.77 1018.45 1018.17 1017.93 1017.73 1017.57 1017.41 1017.29 1017.17 1017.09 1017.01 1017.01 1016.97 1017.01 1016.97 1016.93 1016.93 1016.93 1016.97 1017.01 1017.05 1017.13 1017.25 1017.45 1017.61 1017.65
1023.01 1022.89 1022.69 1022.57 1022.25 1021.97 1021.57 1021.13 1020.85 1020.57 1020.37 1020.09 1019.89 1019.69 1019.45 1019.25 1019.05 1018.77 1018.41 1018.17 1018.01 1017.85 1017.69 1017.49 1017.33 1017.21 1017.13 1017.05 1016.97 1016.89 1016.85 1016.85 1016.85 1016.85 1016.89 1016.89 1016.93 1016.93 1016.93 1017.13 1017.17 1017.29
1023.41 1023.37 1023.17 1022.97 1022.73 1022.45 1022.05 1021.69 1021.41 1021.13 1020.89 1020.61 1020.37 1020.21 1019.89 1019.65 1019.45 1019.05 1018.73 1018.45 1018.17 1017.97 1017.81 1017.65 1017.53 1017.33 1017.21 1017.13 1017.09 1017.05 1016.93 1016.89 1016.85 1016.89 1016.85 1016.81 1016.85 1016.89 1016.93 1016.93 1016.97 1017.05
1023.77 1023.69 1023.57 1023.29 1023.05 1022.81 1022.49 1022.17 1021.97 1021.73 1021.53 1021.25 1020.93 1020.69 1020.33 1020.13 1019.93 1019.57 1019.25 1018.97 1018.65 1018.37 1018.13 1017.93 1017.69 1017.49 1017.33 1017.21 1017.13 1017.05 1017.01 1016.97 1016.93 1016.93 1016.89 1016.85 1016.77 1016.85 1016.89 1016.97 1016.93 1016.97
1024.01 1023.89 1023.81 1023.53 1023.33 1023.09 1022.77 1022.53 1022.41 1022.17 1021.93 1021.69 1021.45 1021.21 1020.89 1020.65 1020.37 1020.05 1019.77 1019.41 1019.13 1018.85 1018.49 1018.21 1017.93 1017.69 1017.41 1017.25 1017.17 1017.09 1017.01 1016.93 1016.89 1016.93 1016.89 1016.85 1016.81 1016.77 1016.81 1016.89 1016.97 1017.01
1023.97 1024.13 1023.97 1023.73 1023.53 1023.25 1022.97 1022.73 1022.65 1022.41 1022.17 1021.97 1021.73 1021.49 1021.17 1021.05 1020.77 1020.53 1020.21 1019.93 1019.65 1019.33 1018.97 1018.73 1018.49 1018.21 1017.93 1017.61 1017.29 1017.13 1017.05 1017.01 1016.97 1016.93 1016.93 1016.85 1016.77 1016.73 1016.69 1016.77 1016.81 1016.89
1023.93 1023.97 1024.13 1023.97 1023.77 1023.41 1023.09 1022.89 1022.69 1022.45 1022.29 1022.13 1021.97 1021.65 1021.45 1021.33 1021.09 1020.77 1020.53 1020.25 1019.89 1019.57 1019.29 1019.09 1018.89 1018.65 1018.41 1018.13 1017.93 1017.69 1017.41 1017.21 1017.17 1017.09 1017.01 1016.89 1016.77 1016.69 1016.65 1016.69 1016.73 1016.73
1024.05 1023.61 1023.81 1024.25 1023.89 1023.57 1023.33 1023.17 1022.97 1022.73 1022.53 1022.41 1022.21 1021.97 1021.73 1021.53 1021.29 1021.01 1020.77 1020.45 1020.13 1019.77 1019.49 1019.33 1019.13 1018.93 1018.73 1018.61 1018.53 1018.33 1018.17 1017.89 1017.65 1017.45 1017.21 1017.01 1016.89 1016.77 1016.77 1016.73 1016.73 1016.73
1024.21 1023.73 1022.97 1024.17 1024.09 1023.77 1023.53 1023.29 1023.09 1022.89 1022.65 1022.61 1022.49 1022.17 1021.93 1021.57 1021.29 1021.05 1020.81 1020.65 1020.41 1020.13 1019.93 1019.69 1019.49 1019.25 1019.09 1018.93 1018.77 1018.61 1018.49 1018.37 1018.21 1018.05 1017.85 1017.53 1017.25 1017.09 1017.01 1017.01 1016.89 1016.81
1024.05 1024.09 1023.97 1024.29 1024.29 1023.97 1023.69 1023.45 1023.21 1022.93 1022.65 1022.61 1022.53 1022.29 1022.01 1021.69 1021.37 1021.09 1020.89 1020.65 1020.41 1020.25 1020.05 1019.89 1019.73 1019.53 1019.37 1019.17 1018.93 1018.73 1018.57 1018.41 1018.25 1018.05 1017.89 1017.69 1017.49 1017.33 1017.25 1017.21 1017.17 1017.13
1024.09 1024.13 1024.05 1024.25 1024.41 1024.09 1023.81 1023.57 1023.33 1023.01 1022.77 1022.57 1022.53 1022.33 1022.09 1021.81 1021.49 1021.33 1021.13 1020.85 1020.61 1020.41 1020.21 1020.05 1019.85 1019.69 1019.53 1019.29 1019.09 1018.93 1018.77 1018.65 1018.49 1018.33 1018.09 1017.81 1017.61 1017.45 1017.37 1017.29 1017.21 1017.13
1023.97 1024.13 1024.13 1024.09 1024.33 1024.21 1024.01 1023.73 1023.41 1023.13 1022.93 1022.69 1022.57 1022.57 1022.37 1022.05 1021.81 1021.61 1021.37 1021.09 1020.89 1020.65 1020.53 1020.29 1020.17 1019.93 1019.73 1019.49 1019.37 1019.29 1019.21 1018.97 1018.69 1018.37 1018.13 1017.93 1017.73 1017.57 1017.45 1017.41 1017.37 1017.29
1023.85 1023.89 1024.05 1024.17 1024.41 1024.25 1024.05 1023.81 1023.53 1023.25 1023.13 1022.89 1022.69 1022.61 1022.53 1022.37 1022.13 1021.85 1021.65 1021.41 1021.25 1021.01 1020.85 1020.69 1020.53 1020.33 1020.05 1019.93 1019.89 1019.65 1019.29 1018.89 1018.53 1018.29 1018.13 1018.01 1017.89 1017.77 1017.61 1017.57 1017.49 1017.45
1023.77 1023.89 1023.57 1024.05 1024.33 1024.17 1024.09 1023.89 1023.65 1023.45 1023.29 1023.17 1023.01 1022.89 1022.69 1022.57 1022.33 1022.13 1021.97 1021.81 1021.57 1021.37 1021.25 1021.09 1020.89 1020.61 1020.45 1020.45 1020.13 1019.57 1019.13 1018.85 1018.45 1018.29 1018.25 1018.21 1018.13 1018.13 1018.13 1018.09 1018.01 1017.93
1023.69 1023.85 1024.01 1024.25 1024.25 1024.17 1024.01 1023.85 1023.73 1023.65 1023.53 1023.41 1023.21 1023.05 1022.89 1022.77 1022.53 1022.41 1022.33 1022.09 1021.85 1021.65 1021.57 1021.45 1021.25 1020.93 1020.89 1020.53 1019.97 1019.61 1019.29 1018.93 1018.77 1018.77 1018.69 1018.61 1018.49 1018.57 1018.53 1018.37 1018.33 1018.33
1023.65 1023.85 1023.69 1024.17 1024.21 1024.09 1023.97 1023.89 1023.85 1023.77 1023.73 1023.57 1023.37 1023.25 1023.17 1022.89 1022.77 1022.77 1022.57 1022.33 1022.13 1022.01 1021.93 1021.73 1021.45 1021.29 1021.01 1020.45 1019.97 1019.57 1019.25 1019.01 1018.89 1018.97 1018.89 1018.73 1018.73 1018.93 1018.89 1018.69 1018.61 1018.57
1023.53 1023.65 1023.77 1024.13 1024.17 1024.13 1024.05 1023.97 1023.93 1023.89 1023.81 1023.73 1023.65 1023.57 1023.29 1023.01 1023.09 1022.97 1022.77 1022.61 1022.45 1022.45 1022.33 1022.01 1021.73 1021.45 1020.93 1020.37 1019.93 1019.53 1019.17 1018.93 1019.05 1019.13 1019.01 1018.93 1019.01 1019.13 1019.09 1019.01 1018.97 1018.89
1023.53 1023.69 1023.85 1024.13 1024.17 1024.21 1024.17 1024.13 1024.09 1024.01 1023.97 1023.93 1023.85 1023.61 1023.37 1023.29 1023.17 1023.01 1022.89 1022.77 1022.85 1022.81 1022.57 1022.17 1021.97 1021.61 1020.97 1020.37 1019.93 1019.53 1019.17 1019.17 1019.41 1019.37 1019.25 1019.17 1019.29 1019.37 1019.37 1019.37 1019.25 1019.21
1023.37 1023.49 1023.89 1024.13 1024.25 1024.29 1024.29 1024.25 1024.21 1024.21 1024.09 1024.01 1023.85 1023.57 1023.37 1023.21 1023.09 1022.89 1022.81 1022.93 1022.97 1022.93 1022.61 1022.29 1022.13 1021.65 1020.97 1020.45 1020.05 1019.65 1019.37 1019.33 1019.61 1019.53 1019.37 1019.37 1019.53 1019.57 1019.57 1019.49 1019.37 1019.45
1023.37 1023.61 1024.05 1024.21 1024.33 1024.41 1024.41 1024.37 1024.33 1024.25 1024.21 1024.09 1023.81 1023.53 1023.33 1023.17 1022.89 1022.77 1022.81 1022.89 1022.97 1022.93 1022.73 1022.45 1022.13 1021.53 1021.05 1020.57 1020.25 1019.93 1019.61 1019.57 1019.57 1019.57 1019.49 1019.49 1019.61 1019.65 1019.61 1019.49 1019.49 1019.69
1023.49 1023.85 1024.13 1024.33 1024.45 1024.49 1024.53 1024.49 1024.41 1024.33 1024.25 1024.05 1023.77 1023.53 1023.33 1023.09 1022.89 1022.73 1022.73 1022.77 1022.85 1022.93 1022.81 1022.53 1022.13 1021.69 1021.25 1020.81 1020.49 1020.09 1019.85 1019.89 1019.81 1019.73 1019.57 1019.57 1019.65 1019.61 1019.61 1019.49 1019.61 1019.81
1023.69 1024.09 1024.29 1024.45 1024.53 1024.61 1024.57 1024.49 1024.45 1024.33 1024.21 1023.93 1023.81 1023.65 1023.45 1023.21 1023.01 1022.81 1022.61 1022.65 1022.81 1022.93 1022.85 1022.57 1022.33 1022.05 1021.53 1021.09 1020.69 1020.33 1020.17 1020.17 1020.01 1019.77 1019.69 1019.73 1019.73 1019.57 1019.53 1019.61 1019.73 1019.85
1023.97 1024.25 1024.45 1024.53 1024.65 1024.69 1024.61 1024.49 1024.37 1024.33 1024.17 1023.97 1024.01 1023.89 1023.65 1023.37 1023.05 1022.73 1022.57 1022.49 1022.73 1022.93 1022.73 1022.69 1022.49 1022.29 1021.81 1021.33 1020.97 1020.61 1020.37 1020.37 1020.17 1019.97 1019.93 1019.85 1019.73 1019.53 1019.53 1019.65 1019.73 1019.89
1024.09 1024.29 1024.45 1024.57 1024.61 1024.65 1024.65 1024.69 1024.61 1024.45 1024.21 1024.09 1023.97 1023.85 1023.65 1023.21 1022.89 1022.73 1022.69 1022.49 1022.57 1022.81 1022.65 1022.65 1022.65 1022.45 1022.09 1021.57 1021.17 1020.85 1020.57 1020.49 1020.33 1020.21 1020.05 1020.01 1019.81 1019.65 1019.65 1019.77 1019.93 1020.17
1024.13 1024.37 1024.49 1024.65 1024.73 1024.73 1024.73 1024.73 1024.65 1024.57 1024.33 1024.17 1024.13 1023.93 1023.45 1023.09 1023.05 1022.93 1022.89 1022.69 1022.45 1022.53 1022.61 1022.73 1022.77 1022.69 1022.41 1021.85 1021.41 1021.05 1020.73 1020.57 1020.49 1020.37 1020.21 1020.01 1019.89 1020.09 1020.13 1020.21 1020.41 1020.57
Wind_Speed
12 11 11 10 10 9 10 10 9 9 8 8 7 7 7 8 9 9 9 8 6 6 6 7 7 8 7 8 9 10 10 11 11 10 12 12 12 14 12 14 14 13
13 12 11 10 9 10 10 10 9 9 8 8 7 7 7 8 8 8 8 8 8 8 8 7 7 6 7 7 8 9 9 9 11 7 9 12 11 12 13 14 14 13
12 13 12 12 11 12 12 10 9 9 9 9 9 8 8 7 8 8 7 7 7 7 7 7 7 7 7 8 7 8 8 9 9 9 9 11 11 11 11 11 11 13
11 12 11 11 11 11 11 10 10 9 9 9 9 9 8 8 9 9 8 8 7 7 6 7 7 7 7 8 8 8 9 9 8 9 9 9 9 10 10 10 10 10
11 10 10 10 10 11 10 10 10 10 10 10 9 10 9 9 9 8 8 8 8 8 7 7 7 6 7 7 7 8 8 8 9 9 9 9 8 8 8 8 10 10
10 10 10 10 10 10 10 10 10 10 10 10 10 9 9 9 9 9 9 9 8 8 8 8 7 7 6 6 6 7 7 7 7 8 10 10 9 9 7 7 9 10
11 10 11 10 12 11 10 9 9 9 9 9 9 9 9 9 9 9 9 9 9 8 8 8 8 8 7 7 6 6 6 7 8 8 9 9 9 10 9 8 8 9
13 11 10 10 11 11 11 10 10 9 9 9 9 9 9 9 10 9 8 9 9 8 8 7 7 7 7 7 7 7 7 6 6 7 8 9 9 9 8 7 8 9
12 12 10 12 12 11 10 10 10 10 9 9 9 9 8 8 8 9 9 9 9 8 8 7 7 7 6 6 7 7 7 7 7 8 9 9 9 8 8 8 8 8
11 13 12 10 12 10 11 10 10 9 8 8 9 8 9 8 8 8 8 8 7 8 8 8 8 8 7 7 7 7 6 7 7 7 8 8 9 9 9 9 8 8
13 11 11 11 12 11 11 11 10 9 8 8 9 9 9 8 8 8 8 8 7 8 7 7 7 7 7 7 7 7 7 7 6 6 7 7 7 7 7 7 7 7
13 11 12 11 12 11 11 11 10 9 10 8 8 9 9 9 8 8 8 8 8 8 8 8 7 7 7 7 6 6 7 7 7 7 7 7 7 7 6 6 6 7
13 12 12 12 10 10 10 10 10 9 10 9 8 8 9 8 8 8 8 8 8 8 8 8 8 7 7 7 7 7 7 7 7 7 7 6 6 6 6 5 6 6
12 12 13 12 10 10 10 10 9 9 9 9 9 9 8 8 8 8 8 7 7 7 7 7 7 7 6 6 7 8 8 7 7 6 6 6 6 6 6 6 6 5
12 12 13 11 10 10 10 10 9 9 9 9 8 8 8 8 8 8 8 8 7 7 7 7 6 6 5 7 9 9 8 8 8 6 6 6 6 6 7 7 6 6
13 12 11 10 10 10 9 9 8 8 8 8 8 8 8 8 7 7 7 6 6 6 6 6 5 4 9 16 13 9 8 7 5 5 5 5 5 6 6 6 6 7
11 11 13 10 11 10 9 9 9 8 8 9 8 7 8 7 5 6 6 6 6 6 7 6 6 6 14 14 13 14 10 7 3 4 5 4 5 6 5 6 6 7
11 12 12 10 10 10 9 9 8 8 8 8 7 7 7 5 6 5 5 5 5 6 6 6 6 10 14 14 13 13 12 6 3 4 4 4 5 5 5 5 5 5
10 11 10 9 9 9 9 8 7 7 7 7 7 7 6 6 6 5 5 4 5 5 5 5 5 10 13 14 13 13 12 8 3 4 5 4 4 5 4 4 4 4
10 11 8 8 8 8 8 7 7 7 7 6 7 7 6 6 6 5 4 3 4 5 5 5 5 10 13 13 13 13 13 10 3 4 4 4 4 4 4 4 4 4
9 8 6 7 7 7 7 7 7 7 7 6 6 6 6 6 5 5 4 3 3 4 4 5 4 11 13 13 14 14 14 10 6 5 4 3 4 3 3 4 3 5
8 7 6 5 6 6 7 7 7 7 7 7 6 6 6 6 5 4 4 3 3 4 4 5 5 12 14 14 14 14 14 6 5 5 4 4 4 4 3 2 3 5
6 4 5 5 5 6 7 7 7 7 6 6 6 6 6 5 5 4 3 3 3 3 3 4 4 10 14 14 14 14 11 6 6 4 4 4 5 4 2 2 4 4
5 4 5 5 5 6 6 7 6 6 6 6 6 6 6 6 5 4 3 3 2 2 3 4 4 8 13 14 14 14 11 6 5 4 4 4 5 4 2 3 4 8
3 4 4 4 5 6 6 6 6 6 6 6 6 6 6 6 4 4 3 3 1 1 5 4 4 7 12 14 15 14 10 6 5 4 4 4 5 4 3 4 4 6
3 3 4 4 5 5 5 5 5 5 6 6 6 5 5 4 4 4 4 4 3 3 2 4 4 6 9 15 15 14 14 8 5 4 5 5 3 4 4 4 5 5
Wind_Direction
358 358 354 351 351 353 348 349 348 346 346 349 346 342 341 340 344 338 332 319 298 267 250 237 228 225 220 224 221 226 229 226 223 216 214 213 214 212 213 214 212 214
359 356 352 349 348 349 345 344 344 343 344 345 347 342 342 345 339 334 323 314 305 299 293 284 278 269 257 246 241 241 241 239 240 235 236 234 232 230 229 228 227 228
355 353 351 349 346 346 341 342 342 342 344 340 343 344 338 340 337 331 328 326 318 306 298 290 278 271 266 262 262 254 250 250 248 243 241 240 239 238 236 234 234 232
350 350 345 344 343 343 339 341 340 342 341 341 342 339 334 338 336 333 335 336 331 323 311 298 288 280 272 268 264 260 260 258 253 252 249 245 239 241 242 241 238 236
342 345 343 340 338 339 336 339 340 340 339 337 338 336 334 339 333 333 335 335 333 331 327 319 304 289 279 269 260 257 253 253 254 252 251 251 248 243 242 244 243 243
337 341 340 338 337 336 333 337 338 336 335 335 335 333 329 337 330 332 335 334 335 331 326 327 327 318 308 285 272 264 262 257 255 251 251 251 251 248 246 240 244 247
335 334 337 337 335 331 328 330 331 329 331 332 331 328 331 333 329 330 332 331 329 326 325 329 331 329 327 323 304 285 272 270 268 262 257 256 253 251 248 246 245 244
330 334 331 333 327 328 326 328 327 327 328 329 326 325 331 328 327 329 329 328 326 322 324 326 328 328 329 331 330 325 313 297 282 272 267 262 259 258 256 255 254 252
325 318 326 326 327 322 321 323 321 321 322 324 323 320 323 319 320 325 323 325 324 322 325 327 328 329 330 332 329 325 321 316 309 297 285 278 272 267 267 265 262 260
316 313 324 325 324 320 319 317 317 314 317 322 319 320 320 319 322 320 322 319 321 325 328 327 329 329 329 326 321 317 316 310 310 312 309 305 295 287 280 277 276 272
317 312 327 330 322 319 316 315 314 312 313 320 319 318 320 320 320 324 325 323 322 324 323 323 321 323 322 319 315 313 312 308 305 301 298 296 294 292 291 285 280 280
322 318 316 321 318 317 317 315 312 311 311 318 321 321 323 321 323 327 324 323 325 324 329 327 328 326 323 318 320 322 321 320 316 309 300 294 289 287 287 292 288 280
320 317 316 322 315 315 314 310 309 309 311 312 318 323 322 322 325 323 323 324 326 328 329 332 332 330 326 330 340 336 325 312 302 295 293 292 294 297 302 304 304 306
320 318 317 318 312 310 309 309 307 308 308 310 313 316 320 321 321 323 323 328 324 329 331 335 333 330 332 344 338 324 312 304 302 301 298 297 299 301 299 300 308 315
316 318 317 316 308 310 307 306 306 308 308 308 311 312 315 316 320 325 325 325 323 329 335 333 332 331 347 339 322 320 324 321 316 329 347 353 355 2 10 7 6 4
314 315 316 313 310 308 307 306 307 308 306 306 307 310 313 317 319 326 327 322 323 325 332 330 325 333 336 329 326 325 324 323 354 1 0 356 2 10 359 358 7 4
309 309 315 309 307 308 307 307 306 306 304 303 307 311 313 308 323 324 320 322 323 326 329 325 327 331 330 328 329 328 327 323 349 10 356 354 18 12 354 352 358 355
305 309 311 304 303 305 307 307 306 303 301 303 308 309 304 313 319 309 318 318 324 328 322 320 326 324 334 333 333 333 327 334 35 25 0 354 12 2 356 352 346 350
298 303 305 298 301 304 304 303 303 303 302 302 302 301 305 303 300 309 306 322 328 323 316 316 323 321 336 336 338 339 336 10 39 23 351 359 11 3 356 347 339 343
293 301 296 293 299 301 300 299 300 299 300 303 300 297 296 298 297 297 310 322 323 323 314 316 316 323 340 342 345 345 343 357 71 7 355 12 14 359 342 336 335 1
291 296 287 293 295 297 296 295 295 297 300 299 301 301 302 301 301 309 313 317 321 324 318 319 313 339 346 347 348 347 346 352 353 351 346 352 353 343 333 321 9 13
291 291 284 287 291 291 290 290 291 292 295 297 298 298 299 296 298 303 305 312 324 331 325 322 333 344 348 348 349 347 355 352 348 332 329 333 334 334 330 348 10 358
289 281 280 281 284 284 285 288 291 293 293 296 298 299 300 303 303 304 305 315 325 332 333 329 338 340 347 348 350 350 359 352 340 333 335 329 318 317 324 350 344 349
279 278 273 274 276 279 282 288 296 299 296 299 299 298 298 299 299 301 303 306 338 326 340 341 338 338 346 348 352 350 357 354 335 332 322 322 312 306 305 324 332 347
271 268 269 273 276 279 277 283 289 295 298 297 292 289 285 284 298 300 307 303 280 295 332 351 342 341 342 348 351 351 351 356 339 324 321 320 312 294 308 332 348 354
271 267 265 271 277 274 276 276 283 287 287 295 294 286 285 299 305 305 303 295 290 295 329 353 351 348 338 347 348 351 349 354 341 324 311 314 354 16 353 347 357 352